User: anonymous   Login
Location: Unspecified
(0.0000°N, 0.0000°E)
Time: 07:53:53
(UTC+00:00)
Language:

COSMOS 2401 - Orbit

View from above orbital plane
View from above orbital plane
View from above satellite
View from above satellite

Ground track
Ground track

The orbit data is extracted from the following two-line orbital elements,

1 27869U 03037B   17328.49252885  .00000005  00000-0 -31873-4 0  9991
2 27869  82.4673 127.9779 0023562  58.0896 302.2448 12.45451752648681
Epoch (UTC): 24 November 2017 11:49:14
Eccentricity: 0.0023562
inclination: 82.4673°
perigee height: 1465 km
apogee height: 1502 km
right ascension of ascending node: 127.9779°
argument of perigee: 58.0896°
revolutions per day: 12.45451752
mean anomaly at epoch: 302.2448°
orbit number at epoch: 64868

The dashed part of the orbit path shows where the satellite is in the earth's shadow,  

DLR